Hourly Data Report for October 07, 2013

All times are specified in Local Standard Time (LST). Add 1 hour to adjust for Daylight Saving Time where and when it is observed.

FREDERICTON
NEW BRUNSWICK

45°52'08.000" N
66°32'14.000" W
20.70 m
8101505
71700
YFC

Download Data

Hourly Data (October 2013)
Hourly Data Report for October 7, 2013
Temp Definition
°C
Dew Point Temp Definition
°C
Rel Hum Definition
%
Wind Dir Definition
10's deg

Wind Spd Definition
km/h
Visibility Definition
km
Stn Press Definition
kPa
Hmdx Definition


Wind Chill Definition


Weather Definition


TIME
00:00 Legend Double Dagger 6.7 5.1 89   0 16.1 102.25     LegendNANA
01:00 Legend Double Dagger 7.5 6.0 90 5 4 16.1 102.22     LegendNANA
02:00 Legend Double Dagger 7.6 6.4 92   0 16.1 102.20     LegendNANA
03:00 Legend Double Dagger 7.3 6.6 95   0 14.5 102.20     LegendNANA
04:00 Legend Double Dagger 7.3 6.7 96 19 5 4.8 102.22     LegendNANA
05:00 Legend Double Dagger 7.6 7.0 96 13 8 3.6 102.18     LegendNANA
06:00 Legend Double Dagger 7.8 7.4 97 7 8 16.1 102.12     LegendNANA
07:00 Legend Double Dagger 8.2 7.5 95 9 8 16.1 102.10     LegendNANA
08:00 Legend Double Dagger 8.7 8.0 96 8 9 16.1 102.08     LegendNANA
09:00 Legend Double Dagger 9.4 8.7 95 9 8 16.1 102.04     LegendNANA
10:00 Legend Double Dagger 11.0 9.5 91 13 9 16.1 101.98     LegendNANA
11:00 Legend Double Dagger 11.7 10.3 91 14 9 16.1 101.92     LegendNANA
12:00 Legend Double Dagger 12.8 11.1 89 15 11 16.1 101.82     LegendNANA
13:00 Legend Double Dagger 14.1 11.4 84 16 18 16.1 101.70     LegendNANA
14:00 Legend Double Dagger 14.6 11.7 83 16 33 16.1 101.61     LegendNANA
15:00 Legend Double Dagger 15.1 12.1 82 16 26 16.1 101.51     LegendNANA
16:00 Legend Double Dagger 15.4 12.3 82 16 15 16.1 101.45     LegendNANA
17:00 Legend Double Dagger 15.8 12.8 82 15 21 16.1 101.35     LegendNANA
18:00 Legend Double Dagger 16.5 13.5 82 16 21 16.1 101.31     LegendNANA
19:00 Legend Double Dagger 16.3 14.2 87 16 28 8.1 101.23     LegendNANA
20:00 Legend Double Dagger 15.9 14.8 93 15 18 11.3 101.14     LegendNANA
21:00 Legend Double Dagger 17.1 16.0 93 16 24 16.1 101.03     LegendNANA
22:00 Legend Double Dagger 17.4 16.4 94 17 30 16.1 100.92     LegendNANA
23:00 Legend Double Dagger 17.4 16.6 95 18 26 9.7 100.83     LegendNANA

Notes on Data Quality.

Legend

  • E = Estimated
  • M = Missing
  • NA = Not Available
  • ‡ = Partner data that is not subject to review by the National Climate Archives
Date modified: